Back to catalog

CZ-6A DEB

AlivePO
NORAD 60825·DEBRIS·🇨🇳 China

Launched Aug 6, 2024 from Taiyuan Satellite Launch Center

Loading…

Next Passes (next 24 hours)

TLE

FreshSource: Space-Track

Epoch: Sep 14, 2026, 09:36 UTC

1 60825U 24140HC  26257.40032912  .00001403  00000-0  42108-3 0  9991
2 60825  88.7925 242.4537 0064746  49.4719 311.2097 14.41012421109643

Track CZ-6A DEB in real time with AllMySat

Download on the App Store